Погода в Пожеге

Хорватия     45°20′04″N   17°40′39″E
темп.,
°C
ветер,
м/с
пор.,
м/с
влажн.,
%
обл.,
%
осадки,
мм/ч
давл.,
гПа
погр.,
м
28 июня, вт
вт2823:00+22в11630 0.0 101611
02:00+20всв22673 0.0 101516
05:00+19ссв11683 0.0 101511
08:00+25в23521 0.0 1016256
11:00+31в33354 0.0 10171045
14:00+34вюв33280 0.0 10151711
17:00+35юв22270 0.0 10142075
20:00+28св23491 0.0 101443
29 июня, ср
ср2923:00+23в236036 0.0 101444
02:00+22в226083 0.0 101318
05:00+20всв22615 0.0 101213
08:00+25в24508 0.0 1012267
11:00+32вюв46335 0.0 10111028
14:00+37вюв44230 0.0 10092156
17:00+29юв81043100 0.5 1008914
20:00+21зсз3483100 3.5 100961
30 июня, чт
чт3023:00+19ссв11897 0.1 101011
02:00+18с00911 0.1 101211
05:00+17зюз22931 0.0 101219
08:00+22зюз23780 0.0 1013222
11:00+30ююз1245100 0.0 1012940
14:00+32юз1237100 0.0 10111436
17:00+33юз123585 0.0 10101955
20:00+28ю11540 0.0 101011
1 июля, пт
пт123:00+24сз11630 0.0 101211
02:00+22зюз11710 0.0 101211
05:00+20з11810 0.0 101211
08:00+25зюз22610 0.0 1013236
11:00+33юз22310 0.0 10131144
14:00+36юз33210 0.0 10122666
17:00+36юз23204 0.0 10112431
20:00+29св113790 0.0 101111
2 июля, сб
сб223:00+23ссв35571 0.2 101473
02:00+18с23844 0.2 101793
05:00+16с1290100 0.0 102071
08:00+20зсз22726 0.0 1021544
11:00+25ссз225131 0.0 10211255
14:00+29ссз224122 0.0 10201729
17:00+30с33396 0.0 10181879
20:00+25с36510 0.0 1019184